Location: Croissy-Beaubourg
(48.8283°N, 2.6696°E)
Time: 16:12:21
(UTC+00:00)

Cosmos 1844 Rocket - Pass Details

Date: 16 October 2021
Orbit: 826 x 843 km, 71.0° (Epoch: 28 November)

Event Time Altitude Azimuth Distance (km) Brightness Sun altitude
Rises 19:36:55 0° 333° (NNW) 3,379 6.5 -26.8°
Reaches altitude 10° 19:39:25 10° 338° (NNW) 2,441 5.6 -27.2°
Enters shadow 19:43:55 49° 18° (NNE) 1,061 3.1 -27.9°
